Location: Saint-Palais-sur-Mer
(45.6429°N, 1.0859°W)
Time: 00:43:54
(UTC+01:00)

Tiros 1 despin weight - Pass Details

Date: 16 February 2026
Orbit: 556 x 593 km, 48.2° (Epoch: 13 March)

Event Time Altitude Azimuth Distance (km) Brightness Sun altitude
Rises 21:22:17 0° 289° (WNW) 2,735 ? -30.1°
Reaches altitude 10° 21:24:32 10° 287° (WNW) 1,840 ? -30.5°
Enters shadow 21:26:34 28° 282° (WNW) 1,073 ? -30.8°
Maximum altitude 21:28:43 73° 203° (SSW) 586 - -31.2°
Drops below altitude 10° 21:32:55 10° 119° (ESE) 1,847 - -31.9°
Sets 21:35:11 0° 118° (ESE) 2,747 - -32.3°
